[[[{"header":{"parameterUnit":"kt","parameterCategory":2,"dx":1,"dy":1,"la1":30.253999710083008,"la2":30.299108505249023,"lo1":-89.0895004272461,"lo2":-89.04439544677734,"nx":28,"ny":28,"refTime":"2022-09-17T21:00:00:Z","depth":0,"parameterNumber":1,"parameterNumberName":"U-component_of_WINDS"},"data":[-8.5074,-8.5233,-8.5206,-8.5376,-8.538,-8.5492,-8.5524,-8.5561,-8.5584,-8.5715,-8.5786,-8.5775,-8.5787,-8.5866,-8.5942,-8.5935,-8.5971,-8.6049,-8.6028,-8.5701,-8.5654,-8.5609,-8.557,-8.6057,-8.6057,-8.6372,-8.6375,-8.6377,-8.4842,-8.4848,-8.4928,-8.4988,-8.5058,-8.4966,-8.5006,-8.5071,-8.5173,-8.5202,-8.5269,-8.5382,-8.5468,-8.5453,-8.5531,-8.5607,-8.5569,-8.5631,-8.5626,-8.563,-8.5279,-8.5237,-8.5661,-8.5661,-8.5661,-8.566,-8.566,-8.566,-8.4414,-8.451,-8.4528,-8.4615,-8.4637,-8.4677,-8.4765,-8.4746,-8.4825,-8.4902,-8.4851,-8.4967,-8.499,-8.5068,-8.5087,-8.5178,-8.5104,-8.5163,-8.5179,-8.5195,-8.5219,-8.4775,-8.5189,-8.5188,-8.5187,-8.5185,-8.5184,0,-8.4092,-8.4061,-8.4135,-8.4202,-8.4263,-8.4312,-8.4351,-8.4404,-8.4327,-8.4396,-8.4493,-8.4543,-8.4644,-8.4733,-8.4798,-8.4805,-8.4718,-8.4704,-8.4745,-8.4774,-8.4792,-8.4788,-8.422,-8.4692,-8.4688,-8.4685,-8.4683,-8.4681,-8.366,-8.3774,-8.3777,-8.3833,-8.3846,-8.3938,-8.3987,-8.3909,-8.3965,-8.4002,-8.4091,-8.4177,-8.4243,-8.4403,-8.438,-8.4456,-8.4414,-8.4598,-8.4425,-8.4448,-8.4421,-8.4417,-8.443,-8.4635,-8.4641,-8.4645,-8.4649,0,-8.3421,-8.337,-8.3536,-8.3527,-8.3528,-8.3652,-8.3644,-8.3737,-8.3707,-8.3831,-8.3855,-8.3809,-8.3906,-8.3851,-8.395,-8.3919,-8.4129,-8.4084,-8.4121,-8.4111,-8.4273,-8.426,-8.4801,-8.4869,-8.436,-8.4365,-8.4369,0,-8.3034,-8.3186,-8.3101,-8.3201,-8.3368,-8.3284,-8.3452,-8.3442,-8.3457,-8.3554,-8.3442,-8.3536,-8.345,-8.3537,-8.3491,-8.3651,-8.3668,-8.3656,-8.3643,-8.3668,-8.367,-8.3698,-8.3677,-8.3603,-8.36,-8.3597,-8.3595,0,-8.2667,-8.2797,-8.2957,-8.2979,-8.2982,-8.306,-8.3065,-8.308,-8.3128,-8.318,-8.3211,-8.3279,-8.3317,-8.3373,-8.3314,-8.3199,-8.3507,-8.3336,-8.3494,-8.3497,-8.3567,-8.3564,-8.4055,-8.3592,-8.3591,-8.359,-8.3589,0,-8.2346,-8.2399,-8.2638,-8.2638,-8.2675,-8.278,-8.2841,-8.2917,-8.2941,-8.2918,-8.2958,-8.2877,-8.3009,-8.2845,-8.3027,-8.2894,-8.2939,-8.2937,-8.2948,-8.2958,-8.2776,-8.3065,-8.3534,-8.3583,-8.2967,-8.2962,-8.2957,0,-8.1943,-8.2167,-8.2095,-8.2324,-8.242,-8.2287,-8.2402,-8.2425,-8.2403,-8.2482,-8.2458,-8.2549,-8.2414,-8.2435,-8.2532,-8.2511,-8.2684,-8.2486,-8.2607,-8.2612,-8.2608,-8.3039,-8.3124,-8.3437,-8.289,-8.2897,-8.2902,0,-8.1623,-8.1621,-8.1667,-8.1688,-8.1702,-8.1781,-8.1912,-8.1982,-8.204,-8.2075,-8.2186,-8.231,-8.2214,-8.2249,-8.2189,-8.2294,-8.2565,-8.2176,-8.2176,-8.2252,-8.2849,-8.293,-8.2983,-8.2502,-8.251,-8.2516,-8.2848,0,-8.1157,-8.126,-8.1379,-8.1426,-8.1477,-8.1614,-8.1552,-8.1614,-8.155,-8.1523,-8.1682,-8.1684,-8.1756,-8.1798,-8.1737,-8.1992,-8.1941,-8.1837,-8.1674,-8.1955,-8.2064,-8.2108,-8.1518,-8.1513,-8.1509,-8.1505,0,0,-8.0786,-8.0931,-8.0845,-8.0967,-8.1006,-8.0863,-8.1017,-8.1037,-8.1082,-8.1112,-8.102,-8.1197,-8.1202,-8.1402,-8.1485,-8.1513,-8.1554,-8.1457,-8.1821,-8.1857,-8.1889,-8.2006,-8.2052,-8.1497,-8.1496,-8.1494,-8.1493,0,-8.0602,-8.0607,-8.0757,-8.0773,-8.0794,-8.0756,-8.0793,-8.0789,-8.0778,-8.093,-8.0812,-8.0899,-8.1041,-8.1064,-8.1094,-8.143,-8.1338,-8.1456,-8.166,-8.1779,-8.1821,-8.1857,-8.198,-8.2025,-8.1482,-8.1483,-8.1483,0,-8.0278,-8.0273,-8.0338,-8.0413,-8.0425,-8.0526,-8.0339,-8.0452,-8.0526,-8.0365,-8.0518,-8.0511,-8.0535,-8.073,-8.0815,-8.0734,-8.1145,-8.1002,-8.1028,-8.1037,-8.1149,-8.1199,-8.1243,-8.0661,-8.0658,-8.0656,0,0,-8.0128,-8.0221,-8.0191,-8.0369,-8.0385,-8.0329,-8.0375,-8.0315,-8.0338,-8.0348,-8.0335,-8.0363,-8.0444,-8.05,-8.0572,-8.0794,-8.0795,-8.0903,-8.0942,-8.0974,-8.1001,-8.1122,-8.1171,-8.0646,-8.0646,-8.0645,0,0,-8.0056,-8.0027,-7.9958,-8.0156,-8.0181,-8.0163,-8.0275,-8.019,-8.0248,-8.0225,-8.0131,-8.0134,-8.0314,-8.0311,-8.0187,-8.0514,-8.0353,-8.0381,-8.0509,-8.0557,-8.0595,-8.0593,-7.9997,0,0,0,0,0,-7.9835,-8.003,-7.9968,-7.9991,-8.0085,-8.0198,-8.0209,-8.0134,-8.0023,-8.0114,-8.0091,-7.9986,-8.0225,-8.0113,-8.0139,-8.0279,-8.0519,-8.0542,-8.0563,-8.0779,-8.083,-8.0873,0,0,0,0,0,0,-7.9843,-7.9872,-7.9962,-7.9954,-7.9974,-8.019,-7.9985,-7.997,-8.0011,-7.9989,-7.9994,-7.9986,-7.9925,-8.0095,-8.0119,-8.0254,-7.9988,-8.0528,-8.0547,-8.0564,-8.0797,-8.0838,-8.0874,0,0,0,0,0,-7.985,-7.9873,-8.0042,-7.995,-7.9968,-7.9915,-7.9977,-7.9962,-7.9993,-7.9956,-7.9945,-7.9933,-7.9931,-7.9946,-8.0109,-8.0245,-7.9971,-7.998,-8.0541,-8.0556,-8.0569,-8.0817,0,0,0,0,0,0,-7.9854,-7.9861,-8.0044,-8.0047,-7.987,-7.9902,-7.9904,-7.9957,-7.9956,-7.9947,-7.989,-7.9873,-7.9938,-7.9948,-7.9961,-8.0246,-7.9957,-7.9966,-7.9972,-8.0552,-8.0564,-8.0574,0,0,0,0,0,0,-7.9848,-7.9865,-8.0046,-7.9948,-7.9939,-7.989,-7.9892,-8.0018,-7.9958,-7.989,-7.9875,-7.9883,-7.9919,-7.9951,-7.996,-8.016,-7.9946,-7.9955,-7.9961,-7.9965,-8.0562,-8.0571,0,0,0,0,0,0,-7.9854,-7.9868,-7.9947,-7.994,-7.9931,-7.9956,-8.0,-8.0101,-7.9873,-7.9892,-7.9851,-7.9841,-7.9925,-7.9932,-7.996,-8.0158,-8.016,-7.9946,-7.9952,-7.9957,-7.996,0,0,0,0,0,0,0,-7.9858,-7.9782,-8.0028,-7.9933,-7.9925,-8.0072,-8.0072,-8.0073,-7.9871,-7.9862,-7.9853,-7.9845,-7.9894,-7.9904,-7.9914,-8.0155,0,0,-7.9945,-7.995,0,0,0,0,0,0,0,0,-7.9774,-7.978,-8.0029,-8.0029,-8.003,-8.0072,-8.0072,-8.0073,-7.987,-7.9862,-7.9855,-7.9848,-7.9897,-7.9905,-7.9913,0,0,0,0,0,0,0,0,0,0,0,0,0,0,0,-8.0029,-8.0029,0,-8.0072,-8.0072,-8.0073,-7.9869,-7.9863,-7.9857,-7.9851,-7.9899,-7.9906,-7.9912,0,0,0,0,0,0,0,0,0,0,0,0,0,0,0,0,0,0,0,0,0,0,0,0,0,0,0,0,0,0,0,0,0,0,0,0,0,0,0,0,0,0,0,0,0,0,0,0,0,0,0,0,0,0,0,0,0,0,0,0,0,0,0,0,0,0,0,0,0]}],[{"header":{"parameterUnit":"kt","parameterCategory":2,"dx":1,"dy":1,"la1":30.253999710083008,"la2":30.299108505249023,"lo1":-89.0895004272461,"lo2":-89.04439544677734,"nx":28,"ny":28,"refTime":"2022-09-17T21:00:00:Z","depth":0,"parameterNumber":2,"parameterNumberName":"V-component_of_WINDS"},"data":[-4.466,-4.4654,-4.462,-4.4596,-4.4561,-4.4538,-4.4519,-4.449,-4.4458,-4.4425,-4.44,-4.4364,-4.4317,-4.4276,-4.4246,-4.423,-4.4219,-4.4241,-4.4218,-4.4152,-4.4141,-4.413,-4.413,-4.4239,-4.424,-4.4292,-4.4292,-4.4293,-4.4613,-4.458,-4.4557,-4.4513,-4.4493,-4.4451,-4.4411,-4.4397,-4.4377,-4.4338,-4.4311,-4.4279,-4.4248,-4.4192,-4.4156,-4.415,-4.4128,-4.4143,-4.4142,-4.4135,-4.4063,-4.4064,-4.4161,-4.4161,-4.4161,-4.4161,-4.4161,-4.4161,-4.4518,-4.4516,-4.4469,-4.4444,-4.4412,-4.4382,-4.4373,-4.433,-4.4306,-4.4267,-4.4229,-4.4206,-4.4158,-4.4098,-4.4069,-4.4048,-4.4024,-4.403,-4.4031,-4.4033,-4.404,-4.3968,-4.404,-4.4039,-4.4039,-4.4038,-4.4038,0,-4.4438,-4.441,-4.4387,-4.4353,-4.4333,-4.4303,-4.427,-4.4263,-4.4191,-4.4174,-4.4147,-4.4125,-4.4082,-4.4051,-4.401,-4.3977,-4.3931,-4.3923,-4.3926,-4.3944,-4.3965,-4.3953,-4.3837,-4.3921,-4.392,-4.3919,-4.3918,-4.3918,-4.4339,-4.4341,-4.4276,-4.4264,-4.4237,-4.4219,-4.42,-4.4136,-4.4119,-4.4068,-4.4067,-4.4036,-4.4008,-4.3969,-4.3916,-4.3883,-4.386,-4.3896,-4.3855,-4.3872,-4.386,-4.3861,-4.386,-4.3906,-4.3907,-4.3908,-4.3909,0,-4.4287,-4.4232,-4.4222,-4.4157,-4.4141,-4.4145,-4.4088,-4.4082,-4.404,-4.4026,-4.4018,-4.3952,-4.3926,-4.3867,-4.3825,-4.3794,-4.3797,-4.3775,-4.3812,-4.3805,-4.3831,-4.3829,-4.3925,-4.3934,-4.382,-4.3821,-4.3822,0,-4.4181,-4.4185,-4.4102,-4.41,-4.4101,-4.4037,-4.404,-4.4004,-4.3963,-4.3951,-4.389,-4.388,-4.3806,-4.3786,-4.3742,-4.3733,-4.3725,-4.3702,-4.369,-4.3707,-4.371,-4.3697,-4.3692,-4.3663,-4.3663,-4.3663,-4.3662,0,-4.4105,-4.4065,-4.4061,-4.4043,-4.3974,-4.3973,-4.3944,-4.3898,-4.388,-4.3847,-4.3835,-4.3801,-4.3783,-4.3757,-4.3701,-4.3675,-4.3689,-4.3642,-4.3664,-4.3666,-4.3671,-4.3672,-4.3771,-4.3662,-4.3662,-4.3661,-4.3661,0,-4.4011,-4.3981,-4.3984,-4.3924,-4.3916,-4.3913,-4.3877,-4.386,-4.3816,-4.3788,-4.3762,-4.3714,-4.3703,-4.366,-4.3642,-4.3625,-4.361,-4.3586,-4.3586,-4.3582,-4.3536,-4.36,-4.3701,-4.3709,-4.3577,-4.3576,-4.3576,0,-4.3938,-4.3926,-4.3872,-4.3875,-4.3861,-4.3794,-4.3789,-4.3752,-4.3714,-4.3696,-4.3653,-4.3633,-4.3589,-4.3574,-4.3573,-4.3529,-4.3551,-4.3524,-4.3496,-4.3496,-4.351,-4.3602,-4.3632,-4.3685,-4.3566,-4.3567,-4.3568,0,-4.3876,-4.3793,-4.3798,-4.3774,-4.3716,-4.3705,-4.3699,-4.3665,-4.3656,-4.3622,-4.3614,-4.3584,-4.3549,-4.3526,-4.3484,-4.3486,-4.3534,-4.3448,-4.3446,-4.3465,-4.3556,-4.3585,-4.3594,-4.3504,-4.3506,-4.3506,-4.356,0,-4.3746,-4.3733,-4.3743,-4.3694,-4.3676,-4.3675,-4.3614,-4.3603,-4.3564,-4.3525,-4.3513,-4.3468,-4.3433,-4.3428,-4.339,-4.3414,-4.3401,-4.3364,-4.3319,-4.338,-4.3396,-4.3402,-4.33,-4.3298,-4.3296,-4.3295,0,0,-4.369,-4.3671,-4.3611,-4.3604,-4.3585,-4.3516,-4.352,-4.3493,-4.3441,-4.3428,-4.3403,-4.3354,-4.3319,-4.3311,-4.3325,-4.3312,-4.331,-4.3291,-4.3351,-4.3358,-4.3364,-4.3382,-4.339,-4.3293,-4.3292,-4.3292,-4.3291,0,-4.363,-4.3597,-4.3603,-4.3573,-4.3526,-4.3484,-4.3486,-4.3427,-4.3402,-4.3391,-4.3333,-4.3319,-4.3283,-4.3252,-4.3232,-4.329,-4.3247,-4.3284,-4.3337,-4.3339,-4.3347,-4.3355,-4.3375,-4.3383,-4.3288,-4.3288,-4.3288,0,-4.3557,-4.3515,-4.3511,-4.3466,-4.3434,-4.3422,-4.3359,-4.3349,-4.3339,-4.3263,-4.3253,-4.322,-4.3174,-4.3176,-4.3174,-4.315,-4.3194,-4.3169,-4.3177,-4.3175,-4.3174,-4.3185,-4.3194,-4.3074,-4.3073,-4.3073,0,0,-4.3514,-4.3502,-4.3436,-4.3448,-4.3433,-4.3371,-4.3358,-4.3319,-4.328,-4.3265,-4.3221,-4.3184,-4.3162,-4.3149,-4.3125,-4.3136,-4.312,-4.3146,-4.3156,-4.3164,-4.3168,-4.3169,-4.3179,-4.3071,-4.3071,-4.3071,0,0,-4.3493,-4.3417,-4.3386,-4.3393,-4.3358,-4.3293,-4.3303,-4.3262,-4.3235,-4.3228,-4.316,-4.3147,-4.3147,-4.3117,-4.3099,-4.3107,-4.3063,-4.3066,-4.3128,-4.3139,-4.3149,-4.3157,-4.3028,0,0,0,0,0,-4.3401,-4.3427,-4.3399,-4.3391,-4.3333,-4.3309,-4.3301,-4.3246,-4.3216,-4.3224,-4.3181,-4.3136,-4.3093,-4.3076,-4.3068,-4.3089,-4.3047,-4.3052,-4.3055,-4.3137,-4.315,-4.3161,0,0,0,0,0,0,-4.3397,-4.3388,-4.3398,-4.3336,-4.3322,-4.3308,-4.3245,-4.323,-4.3214,-4.3205,-4.3146,-4.3134,-4.3086,-4.3076,-4.307,-4.309,-4.303,-4.3049,-4.3053,-4.3056,-4.3141,-4.3152,-4.3161,0,0,0,0,0,-4.3394,-4.3386,-4.3309,-4.3335,-4.3323,-4.3256,-4.3243,-4.3231,-4.3217,-4.315,-4.3137,-4.3177,-4.3088,-4.3079,-4.3072,-4.3094,-4.3034,-4.3032,-4.3051,-4.3054,-4.3057,-4.3146,0,0,0,0,0,0,-4.3392,-4.3374,-4.3305,-4.3299,-4.3321,-4.3255,-4.3243,-4.3231,-4.3161,-4.3149,-4.3178,-4.3172,-4.309,-4.3083,-4.3076,-4.3099,-4.3037,-4.3035,-4.3033,-4.3053,-4.3056,-4.3058,0,0,0,0,0,0,-4.3378,-4.337,-4.3302,-4.3288,-4.328,-4.3255,-4.3245,-4.323,-4.3161,-4.3193,-4.3186,-4.3176,-4.3099,-4.3085,-4.308,-4.306,-4.3039,-4.3037,-4.3036,-4.3035,-4.3055,-4.3057,0,0,0,0,0,0,-4.3374,-4.3367,-4.3289,-4.3283,-4.3276,-4.3208,-4.3241,-4.3185,-4.3151,-4.3197,-4.3146,-4.3144,-4.3103,-4.3096,-4.3083,-4.3066,-4.3061,-4.3039,-4.3037,-4.3037,-4.3036,0,0,0,0,0,0,0,-4.337,-4.343,-4.3339,-4.3279,-4.3273,-4.3246,-4.3245,-4.3243,-4.315,-4.3149,-4.3147,-4.3145,-4.305,-4.3048,-4.3045,-4.307,0,0,-4.3039,-4.3038,0,0,0,0,0,0,0,0,-4.3431,-4.343,-4.3339,-4.3338,-4.3336,-4.3246,-4.3245,-4.3244,-4.315,-4.3149,-4.3147,-4.3146,-4.3049,-4.3047,-4.3046,0,0,0,0,0,0,0,0,0,0,0,0,0,0,0,-4.3339,-4.3338,0,-4.3246,-4.3245,-4.3244,-4.315,-4.3149,-4.3147,-4.3146,-4.3049,-4.3047,-4.3046,0,0,0,0,0,0,0,0,0,0,0,0,0,0,0,0,0,0,0,0,0,0,0,0,0,0,0,0,0,0,0,0,0,0,0,0,0,0,0,0,0,0,0,0,0,0,0,0,0,0,0,0,0,0,0,0,0,0,0,0,0,0,0,0,0,0,0,0,0]}]]]